| ID | Machine | Gebeurtenis | Tijd | Uren | Service | Status | USB ID | |
|---|---|---|---|---|---|---|---|---|
| 271696 | 40-044XAI-S5 | Engine Stopped | 10-12-2024 10:35:24 | 181 | 500 | In orde | 25A2A752B7A | |
| 271697 | 40-044XAI-S5 | Aardlek Alarm Shutdown | 10-12-2024 10:35:16 | 181 | 500 | In orde | 25A2A752B7A | |
| 271698 | 40-044XAI-S5 | Engine Start | 10-12-2024 10:35:02 | 181 | 500 | In orde | 25A2A752B7A | |
| 271350 | 40-044XAI-S5 | Power Door Opened Warning | 09-12-2024 08:47:05 | 181 | 500 | In orde | 25A2A752B7A | |
| 271347 | 40-044XAI-S5 | Power Door Opened Warning | 09-12-2024 08:45:52 | 181 | 500 | In orde | 25A2A752B7A | |
| 271339 | 40-044XAI-S5 | Power Door Opened Warning | 09-12-2024 08:30:55 | 181 | 500 | In orde | 25A2A752B7A | |
| 271338 | 40-044XAI-S5 | Power Door Opened Warning | 09-12-2024 08:28:01 | 181 | 500 | In orde | 25A2A752B7A | |
| 6008 | 40-044XAI-S5 | Engine Start | 23-08-2024 11:39:29 | 181 | 500 | In orde | 25A2A752B7A | |
| 5973 | 40-044XAI-S5 | Engine Start | 23-08-2024 09:54:49 | 181 | 500 | In orde | 25A2A752B7A | |
| 5210 | 40-044XAI-S5 | Engine Start | 20-08-2024 06:24:11 | 174 | 500 | In orde | 25A2A752B7A | |
| 5024 | 40-044XAI-S5 | Power Door Opened Warning | 19-08-2024 09:57:06 | 168 | 500 | In orde | 25A2A752B7A | |
| 5012 | 40-044XAI-S5 | Engine Start | 19-08-2024 08:17:18 | 167 | 500 | In orde | 25A2A752B7A | |
| 4915 | 40-044XAI-S5 | Engine Start | 18-08-2024 19:50:00 | 158 | 500 | In orde | 25A2A752B7A | |
| 4914 | 40-044XAI-S5 | Engine Stopped | 18-08-2024 19:49:43 | 158 | 500 | In orde | 25A2A752B7A | |
| 4913 | 40-044XAI-S5 | Generator Over Current Warning | 18-08-2024 19:43:19 | 158 | 500 | In orde | 25A2A752B7A | |
| 4891 | 40-044XAI-S5 | Engine Start | 18-08-2024 19:35:19 | 158 | 500 | In orde | 25A2A752B7A | |
| 4892 | 40-044XAI-S5 | Engine Stopped | 18-08-2024 19:35:09 | 158 | 500 | In orde | 25A2A752B7A | |
| 4893 | 40-044XAI-S5 | Generator Under Volts Warning | 18-08-2024 19:35:00 | 158 | 500 | In orde | 25A2A752B7A | |
| 4894 | 40-044XAI-S5 | Generator Over Current Warning | 18-08-2024 19:34:51 | 158 | 500 | In orde | 25A2A752B7A | |
| 4895 | 40-044XAI-S5 | Engine Start | 18-08-2024 19:34:42 | 158 | 500 | In orde | 25A2A752B7A | |
| 4896 | 40-044XAI-S5 | Engine Stopped | 18-08-2024 19:33:37 | 158 | 500 | In orde | 25A2A752B7A | |
| 4897 | 40-044XAI-S5 | kW Overload Alarm Shutdown | 18-08-2024 19:33:28 | 158 | 500 | In orde | 25A2A752B7A | |
| 4898 | 40-044XAI-S5 | Generator Over Current Warning | 18-08-2024 19:33:10 | 158 | 500 | In orde | 25A2A752B7A | |
| 4902 | 40-044XAI-S5 | Engine Start | 18-08-2024 19:16:30 | 157 | 500 | In orde | 25A2A752B7A | |
| 4903 | 40-044XAI-S5 | Engine Stopped | 18-08-2024 19:16:05 | 157 | 500 | In orde | 25A2A752B7A |